Location: Sternwarte Stuttgart
(48.7670°N, 9.1830°E)
Time: 15:34:01
(UTC+01:00)

Cosmos-2242 - Pass Details

Date: 24 January 2019
Orbit: 592 x 617 km, 82.5° (Epoch: 21 February)

Event Time Altitude Azimuth Distance (km) Brightness Sun altitude
Rises 06:00:02 0° 168° (SSE) 2,828 6.7 -20.1°
Reaches altitude 10° 06:02:19 10° 161° (SSE) 1,935 5.9 -19.7°
Maximum altitude 06:06:18 39° 92° (E) 906 4.5 -19.1°
Drops below altitude 10° 06:10:20 10° 24° (NNE) 1,964 5.8 -18.4°
Sets 06:12:40 0° 16° (NNE) 2,878 6.6 -18.0°
